Wind_Speed
5 4 3 2 1 1 2 3 4 5 6 8 10 11 11 11 11 10 9 7 6 6 6 5 4 4 4 4 4 4 4 4 4 4 4 4 4 4 4 4 5 5 5 5 5 5 5 5 4
6 5 5 4 4 4 5 4 4 4 3 5 7 10 11 11 11 10 10 8 7 7 7 6 5 4 4 4 4 4 4 4 4 4 4 4 4 4 4 4 4 5 5 5 5 5 4 4 3
8 7 7 7 7 7 8 7 6 4 4 5 6 8 10 11 11 11 10 9 8 8 7 7 6 5 4 4 4 4 4 4 5 5 5 5 5 6 6 6 5 5 6 6 6 5 5 5 4
10 10 10 10 11 11 11 10 10 8 7 7 7 9 10 11 12 12 11 11 9 9 8 7 7 5 5 5 5 5 5 5 6 6 6 7 7 7 8 8 8 8 8 8 8 8 7 7 7
13 12 13 13 14 13 14 14 13 12 10 9 9 9 10 11 12 12 12 11 10 10 9 8 8 7 6 6 6 6 6 6 7 8 8 8 9 9 10 10 11 11 11 11 11 10 10 10 9
16 15 15 15 16 16 17 16 16 14 13 11 10 10 10 11 12 11 12 11 11 10 10 9 9 9 8 8 8 8 8 8 8 9 9 10 10 11 12 12 13 13 14 14 14 13 13 12 12
18 17 17 17 19 19 20 18 18 17 15 13 11 11 11 10 11 12 12 13 12 12 12 12 11 11 10 9 9 9 9 9 10 10 11 12 12 13 13 14 14 15 16 16 16 16 15 15 14
21 19 19 20 21 22 23 21 20 19 17 15 14 12 11 11 12 13 14 15 14 15 15 14 12 12 12 11 11 10 10 10 10 11 11 12 13 14 14 15 16 16 17 18 18 18 17 17 17
23 21 21 22 24 24 25 24 23 20 19 18 16 14 13 13 14 14 15 16 16 16 16 15 14 14 14 13 13 13 12 12 11 12 12 13 14 15 16 16 17 17 18 19 19 19 19 19 19
24 22 22 24 26 27 27 27 25 22 21 19 17 16 15 15 15 17 18 18 18 17 16 17 17 17 16 16 16 15 15 14 14 14 14 15 16 16 17 18 19 19 20 20 20 20 21 21 21
24 23 24 25 27 28 28 28 27 25 24 22 19 19 17 16 17 19 20 20 19 18 19 19 20 20 19 19 19 19 18 17 17 16 16 17 18 19 19 19 20 21 22 22 22 22 22 23 23
22 22 23 25 27 28 29 29 29 27 26 24 21 20 20 20 20 21 21 21 20 20 21 21 22 22 22 22 21 21 20 20 20 20 20 19 20 21 21 22 22 22 23 23 24 24 25 25 25
20 19 20 23 25 26 27 28 29 28 27 25 23 22 21 22 22 22 21 21 20 21 21 22 22 23 23 22 23 23 24 24 23 22 22 21 22 24 22 23 24 24 24 24 25 25 25 26 27
17 17 18 20 22 23 25 26 27 28 28 26 26 25 24 24 23 23 23 21 21 21 22 21 21 22 23 23 24 24 23 23 20 20 22 23 23 23 24 25 26 25 25 26 26 26 25 26 26
14 14 15 18 20 21 23 23 24 26 27 27 26 26 25 25 24 23 21 21 21 20 20 20 21 22 23 23 23 22 20 19 19 20 21 23 24 25 26 27 27 27 27 27 27 27 27 27 27
12 13 14 15 17 19 21 21 21 23 25 26 26 26 25 25 23 21 20 18 18 19 19 19 19 21 21 21 21 21 21 21 21 22 23 24 26 27 27 28 28 28 29 29 28 28 28 28 27
11 12 12 13 14 15 17 19 20 21 22 23 24 24 23 22 21 20 18 16 17 17 17 17 19 19 20 21 21 20 21 23 23 23 24 26 27 28 29 29 30 30 30 30 29 29 28 28 28
10 10 10 11 11 12 12 15 16 17 19 21 22 22 20 21 20 19 17 16 16 16 17 18 18 19 21 21 21 22 23 24 25 26 27 28 29 30 30 31 31 31 31 31 30 30 30 29 28
9 9 9 9 10 10 11 13 15 17 17 18 19 19 19 19 18 16 15 15 15 16 17 18 18 20 21 22 23 24 25 27 28 29 29 30 31 32 32 32 33 33 33 32 32 31 31 30 29
7 8 8 9 11 11 11 12 13 14 15 16 15 16 15 15 14 13 14 14 15 16 17 18 19 20 22 23 25 26 28 28 29 30 32 32 33 34 34 34 34 35 35 34 34 33 32 32 31
8 8 9 9 10 10 10 10 11 12 12 11 12 12 10 10 10 11 13 14 15 16 17 18 20 21 23 24 26 28 29 31 32 33 34 35 36 36 36 36 36 36 36 36 36 35 34 33 33
8 9 10 10 10 9 9 9 10 9 8 7 7 8 8 9 10 11 12 14 14 16 18 20 21 23 24 26 27 29 30 32 33 35 36 37 37 37 37 37 37 37 37 37 37 36 35 35 34
8 9 10 10 9 9 9 9 9 7 6 5 5 6 7 7 9 11 13 14 16 17 19 21 22 24 26 28 29 31 32 34 35 36 37 37 38 38 37 37 37 37 37 37 37 37 37 36 36
8 8 9 8 8 8 8 7 7 6 5 4 4 4 5 6 8 11 13 15 17 18 20 22 24 26 28 29 31 32 33 34 35 36 36 37 37 38 38 37 37 37 38 38 38 38 38 37 37
8 9 8 7 7 7 7 6 7 6 5 4 4 5 6 7 9 12 14 16 17 19 21 23 26 27 29 30 32 33 33 33 34 34 35 35 36 36 37 37 37 37 37 37 38 38 38 38 37
9 9 9 8 6 6 6 6 5 5 4 4 4 6 7 9 12 14 15 17 18 21 23 25 27 28 30 31 32 33 33 33 34 34 34 34 35 35 36 36 36 36 37 37 37 37 37 37 37
9 9 9 8 6 6 5 5 5 5 5 5 7 8 9 11 13 14 16 17 19 21 24 26 28 30 31 32 32 33 33 34 34 34 35 35 35 35 36 36 37 37 37 37 37 37 37 37 37
8 8 8 7 7 6 4 5 6 6 7 8 9 10 11 12 14 15 16 18 21 23 26 29 31 32 33 33 33 34 34 34 35 35 35 35 36 36 37 37 37 38 38 38 38 38 38 38 38
7 7 7 7 7 6 6 6 7 7 8 9 10 11 12 13 15 16 19 21 24 27 29 32 33 33 33 34 34 35 35 36 36 36 36 37 37 37 37 38 38 39 39 39 39 39 40 40 40
7 8 7 7 8 7 7 7 8 8 10 11 12 12 14 15 17 19 21 24 26 29 32 33 34 34 35 35 35 36 37 37 37 37 38 37 37 38 38 39 39 40 40 40 40 40 41 41 42
Wind_Direction
355 343 331 334 330 264 295 336 355 12 29 26 23 16 8 1 357 356 351 346 348 343 333 329 327 333 341 349 356 1 4 6 8 11 14 12 9 4 1 2 0 2 3 5 8 9 13 19 25
338 322 305 296 282 273 283 297 319 346 2 10 8 4 357 356 353 348 343 338 334 328 319 314 312 316 322 330 336 337 337 339 340 340 339 339 337 336 328 326 330 334 337 340 342 343 342 345 349
329 313 294 285 277 274 277 281 288 304 322 334 348 352 347 347 347 343 339 330 324 317 307 301 299 301 302 311 316 316 314 315 318 317 316 313 312 310 307 306 305 308 312 314 314 313 312 309 307
316 305 290 281 276 272 269 273 278 282 300 311 328 342 341 339 336 334 332 328 317 305 296 293 292 288 290 295 300 302 299 297 301 301 303 303 301 300 299 296 293 293 294 296 297 294 292 292 290
304 297 288 281 275 268 266 267 272 276 288 298 310 323 326 330 332 330 330 327 317 302 291 287 286 280 281 284 287 288 290 289 291 291 293 294 295 294 295 293 291 289 289 287 286 286 283 282 282
296 293 283 276 270 265 261 264 267 271 282 293 302 311 316 322 327 326 325 323 315 305 295 285 279 276 276 277 278 279 282 286 287 288 289 290 292 292 292 292 290 288 286 286 284 282 279 275 275
289 287 278 268 263 258 259 263 264 270 276 283 289 294 303 314 320 321 319 316 309 303 295 285 277 274 273 272 271 272 275 280 283 285 288 291 293 293 292 292 290 287 284 284 283 281 278 275 273
284 279 271 260 254 251 257 259 261 264 269 277 280 281 288 299 305 309 309 306 303 296 290 286 277 275 274 272 271 269 269 274 278 282 287 291 292 294 295 293 290 288 285 284 283 280 276 274 271
280 272 265 255 249 249 253 255 258 259 262 271 274 275 280 289 295 299 301 299 297 293 288 282 274 272 271 268 267 267 266 269 272 276 281 286 290 292 293 293 289 288 286 284 282 278 276 273 270
277 270 260 253 248 246 249 253 254 255 259 265 269 273 278 285 292 294 294 292 290 285 282 276 271 267 267 265 264 264 264 265 269 274 278 281 285 287 290 289 287 287 286 283 281 277 275 275 272
276 269 259 251 247 245 246 249 252 253 256 260 266 271 276 284 288 291 288 288 284 279 277 273 271 265 264 262 260 259 259 263 266 271 276 279 281 283 287 286 285 286 285 284 282 278 276 275 275
278 271 261 253 250 247 245 248 251 254 256 262 266 270 276 283 285 288 289 286 280 276 273 272 269 267 264 263 265 263 260 261 262 265 268 273 277 280 283 283 283 284 283 284 284 282 279 277 275
280 272 264 257 254 253 250 250 253 255 259 262 264 269 277 281 285 287 285 284 279 278 274 275 271 267 268 270 270 268 263 264 263 267 271 272 281 281 282 283 285 285 285 286 285 283 282 279 276
283 274 268 261 255 254 253 253 255 257 259 263 268 273 277 282 285 288 290 285 282 280 279 278 281 274 274 272 270 273 271 272 276 283 281 279 282 286 285 289 289 287 286 286 285 286 282 280 278
288 276 270 265 260 257 256 257 258 261 262 266 271 275 278 282 287 290 290 286 282 281 287 288 288 285 282 279 281 283 283 281 283 284 287 286 286 287 288 290 289 287 287 286 285 284 282 280 277
289 281 274 273 267 263 261 260 261 263 265 269 273 276 278 280 285 287 288 284 284 286 288 289 289 289 291 294 295 295 289 285 285 285 287 287 289 290 290 289 287 287 286 286 285 283 282 280 277
298 290 281 276 277 274 269 266 266 268 269 271 274 277 278 278 280 284 286 286 288 287 291 294 296 297 299 300 298 296 292 290 289 291 291 291 291 290 290 290 288 287 286 284 284 283 283 280 277
306 305 293 285 283 282 277 273 274 272 271 271 273 275 278 280 281 280 285 290 296 296 296 298 299 300 300 300 303 303 299 295 294 293 293 293 292 291 291 290 289 287 286 284 282 281 280 279 277
308 307 306 295 286 283 280 280 277 272 275 274 272 274 278 281 285 283 287 296 300 302 301 301 302 301 301 302 303 303 301 300 298 297 297 296 294 293 292 290 288 286 284 283 281 280 278 278 275
317 310 309 306 297 290 289 286 284 283 281 277 273 277 281 280 284 287 291 298 301 303 303 303 304 304 305 305 305 304 303 302 301 300 298 296 294 293 292 289 287 285 284 282 281 279 277 276 274
330 326 319 318 313 301 303 303 300 299 296 286 280 283 286 286 290 292 294 299 303 305 305 304 305 306 307 307 307 306 305 303 301 299 298 296 294 293 291 289 287 285 283 281 281 279 276 275 273
324 325 322 321 321 327 325 325 324 316 310 298 288 286 286 287 293 293 298 303 305 306 306 306 308 308 308 307 307 306 304 302 300 298 297 296 294 293 291 289 287 285 282 281 279 278 276 273 271
320 322 323 325 329 335 335 336 342 332 323 317 299 293 293 295 302 303 305 308 310 309 309 309 310 310 309 308 307 306 304 302 300 299 297 296 294 293 291 289 287 285 283 281 279 277 275 272 269
322 326 329 332 339 348 347 345 355 0 346 335 316 306 308 307 307 307 309 311 311 312 313 313 313 312 312 311 309 308 306 304 302 300 298 296 294 292 291 289 287 285 283 281 278 276 274 272 269
319 325 327 326 334 348 0 4 8 5 2 343 327 316 311 312 311 310 311 314 315 317 317 316 314 314 313 313 311 310 308 306 304 301 299 297 295 293 291 290 288 285 283 280 278 276 274 271 268
319 327 328 325 330 333 347 357 354 355 352 339 321 312 308 308 309 311 314 316 317 318 318 318 317 317 316 315 314 312 310 308 306 304 302 300 298 295 293 291 289 287 284 281 278 275 272 269 266
315 321 327 323 326 328 325 329 330 325 320 313 309 306 303 305 308 311 315 317 319 321 322 322 321 320 319 319 318 316 314 313 311 309 307 304 302 299 297 294 291 288 286 282 279 275 272 269 265
306 314 320 328 335 334 323 314 316 315 314 308 307 308 307 309 312 315 319 322 324 325 326 326 325 324 323 322 321 320 319 318 316 314 311 309 305 302 299 297 293 290 287 284 280 276 272 268 265
302 308 316 322 325 324 319 319 318 317 316 313 311 309 310 315 319 322 325 326 328 328 328 328 328 327 326 325 324 323 322 320 318 316 314 312 309 305 302 299 296 293 289 285 281 277 273 269 265
296 306 309 312 319 321 321 328 323 320 317 315 315 317 321 324 325 327 328 329 330 330 330 330 329 329 328 327 326 325 324 322 320 318 316 314 311 308 305 302 299 295 291 286 282 278 273 268 264
Height
5915 5914 5914 5914 5914 5912 5911 5910 5909 5908 5907 5907 5907 5906 5906 5907 5907 5908 5906 5904 5904 5903 5903 5902 5902 5901 5900 5900 5899 5899 5899 5899 5899 5899 5900 5900 5900 5900 5900 5900 5900 5900 5899 5899 5899 5899 5899 5899 5899
5915 5914 5915 5914 5913 5911 5911 5910 5909 5908 5908 5907 5906 5906 5906 5905 5905 5905 5904 5904 5903 5903 5902 5902 5901 5900 5900 5899 5899 5899 5898 5898 5898 5898 5899 5899 5899 5899 5899 5899 5899 5899 5899 5899 5899 5899 5898 5898 5898
5914 5914 5914 5913 5911 5910 5910 5909 5908 5908 5907 5907 5906 5905 5905 5905 5904 5904 5904 5903 5902 5902 5901 5901 5900 5899 5899 5898 5898 5898 5897 5897 5897 5897 5897 5897 5897 5898 5898 5898 5898 5898 5898 5898 5897 5897 5897 5898 5898
5914 5913 5913 5912 5910 5908 5907 5907 5907 5907 5906 5906 5905 5905 5904 5904 5903 5903 5902 5902 5901 5901 5901 5900 5899 5898 5897 5897 5897 5897 5896 5896 5896 5896 5896 5896 5896 5896 5896 5896 5896 5896 5896 5896 5896 5896 5896 5896 5896
5912 5911 5910 5909 5907 5906 5905 5905 5904 5905 5904 5904 5903 5903 5903 5903 5902 5901 5901 5900 5900 5900 5899 5899 5898 5897 5896 5896 5895 5895 5895 5895 5895 5895 5895 5895 5894 5894 5894 5894 5894 5894 5894 5894 5894 5894 5894 5894 5894
5909 5908 5908 5906 5904 5903 5902 5902 5902 5902 5902 5902 5901 5901 5901 5901 5900 5900 5900 5899 5899 5898 5898 5897 5896 5895 5895 5894 5894 5894 5893 5893 5893 5893 5893 5893 5892 5892 5892 5892 5892 5892 5891 5891 5891 5891 5891 5892 5892
5907 5906 5904 5902 5901 5899 5899 5899 5899 5899 5899 5899 5899 5899 5899 5899 5899 5898 5898 5898 5897 5897 5896 5895 5894 5893 5893 5892 5892 5892 5891 5891 5891 5891 5891 5890 5890 5890 5889 5889 5889 5888 5888 5888 5888 5888 5888 5888 5889
5902 5903 5900 5898 5896 5896 5895 5895 5895 5896 5896 5897 5897 5896 5896 5897 5896 5896 5896 5895 5895 5894 5893 5893 5892 5891 5890 5890 5890 5889 5889 5889 5889 5889 5888 5888 5887 5887 5886 5886 5885 5885 5885 5884 5884 5884 5884 5884 5885
5897 5898 5896 5894 5892 5891 5890 5890 5891 5892 5893 5893 5893 5893 5894 5894 5893 5893 5893 5893 5892 5892 5891 5890 5889 5888 5888 5887 5887 5887 5886 5886 5886 5886 5885 5885 5884 5884 5883 5883 5882 5881 5881 5880 5880 5879 5879 5880 5880
5891 5891 5891 5889 5887 5887 5886 5886 5887 5888 5889 5889 5890 5890 5890 5890 5890 5890 5889 5889 5888 5888 5888 5887 5886 5885 5884 5884 5884 5883 5883 5883 5883 5882 5882 5882 5881 5880 5880 5879 5878 5877 5876 5876 5875 5875 5874 5874 5874
5884 5885 5884 5883 5882 5882 5882 5882 5882 5883 5885 5886 5886 5887 5887 5887 5887 5887 5886 5885 5884 5884 5883 5882 5881 5880 5880 5879 5879 5879 5878 5879 5878 5878 5878 5877 5877 5876 5875 5874 5873 5872 5872 5871 5870 5869 5869 5869 5869
5878 5878 5877 5877 5876 5877 5878 5878 5878 5879 5880 5881 5882 5883 5884 5884 5883 5882 5881 5880 5880 5879 5878 5877 5876 5875 5875 5874 5874 5874 5873 5873 5872 5873 5872 5872 5871 5871 5870 5869 5868 5867 5866 5865 5865 5864 5863 5863 5863
5872 5872 5871 5872 5872 5873 5874 5874 5875 5875 5876 5878 5879 5879 5880 5879 5879 5877 5876 5875 5875 5874 5873 5872 5871 5870 5869 5869 5868 5867 5867 5866 5866 5866 5865 5866 5865 5865 5864 5863 5862 5861 5860 5860 5860 5859 5858 5858 5857
5868 5868 5867 5867 5867 5868 5869 5871 5872 5872 5872 5874 5874 5875 5875 5875 5874 5873 5872 5872 5871 5870 5869 5867 5865 5864 5864 5862 5862 5861 5861 5860 5860 5861 5860 5860 5860 5858 5858 5857 5856 5855 5855 5854 5854 5853 5852 5852 5851
5866 5865 5864 5863 5864 5865 5866 5867 5868 5868 5868 5869 5870 5870 5870 5870 5869 5868 5868 5867 5866 5864 5864 5863 5860 5859 5858 5857 5857 5856 5856 5855 5855 5854 5855 5855 5854 5853 5853 5852 5851 5850 5849 5849 5847 5847 5846 5845 5845
5865 5864 5863 5862 5861 5862 5864 5864 5864 5864 5865 5865 5866 5866 5866 5866 5865 5864 5863 5862 5861 5860 5860 5859 5857 5855 5854 5853 5853 5852 5851 5851 5850 5850 5850 5850 5849 5847 5847 5846 5844 5844 5843 5842 5841 5840 5839 5839 5839
5863 5862 5861 5861 5860 5859 5860 5860 5860 5860 5861 5861 5861 5861 5861 5861 5861 5860 5860 5859 5858 5857 5857 5855 5854 5852 5851 5850 5849 5847 5846 5846 5845 5845 5845 5844 5843 5842 5840 5839 5838 5837 5836 5835 5835 5834 5833 5832 5832
5863 5861 5860 5859 5858 5858 5857 5857 5857 5856 5856 5856 5856 5857 5856 5856 5855 5856 5856 5855 5855 5854 5853 5852 5850 5849 5848 5846 5845 5844 5842 5842 5841 5840 5839 5838 5836 5835 5833 5832 5830 5829 5828 5827 5827 5826 5826 5825 5825
5862 5860 5859 5858 5857 5856 5855 5854 5853 5852 5852 5851 5851 5852 5851 5851 5851 5852 5852 5851 5851 5850 5849 5848 5847 5845 5844 5842 5841 5839 5838 5836 5835 5833 5832 5830 5828 5826 5825 5824 5822 5821 5820 5819 5819 5818 5818 5818 5817
5861 5860 5858 5857 5855 5854 5853 5851 5849 5848 5847 5847 5848 5848 5848 5848 5848 5848 5848 5848 5848 5847 5846 5845 5843 5841 5840 5838 5836 5834 5832 5830 5828 5826 5824 5822 5820 5818 5816 5815 5814 5812 5811 5810 5810 5810 5810 5809 5809
5861 5859 5858 5856 5854 5852 5851 5850 5848 5846 5845 5844 5844 5844 5845 5846 5846 5846 5846 5845 5845 5844 5843 5842 5840 5838 5835 5833 5830 5828 5825 5823 5821 5818 5816 5814 5811 5809 5808 5806 5804 5803 5802 5801 5800 5800 5800 5800 5800
5861 5859 5857 5855 5853 5851 5850 5848 5846 5844 5843 5842 5842 5843 5843 5844 5844 5844 5843 5843 5842 5840 5839 5838 5836 5833 5830 5828 5825 5822 5819 5816 5814 5811 5808 5805 5802 5800 5798 5796 5795 5793 5792 5791 5790 5790 5790 5790 5791
5860 5858 5857 5855 5852 5850 5848 5847 5845 5842 5842 5842 5841 5841 5841 5842 5841 5841 5841 5839 5838 5837 5835 5833 5831 5828 5825 5822 5819 5816 5813 5809 5806 5802 5799 5796 5793 5790 5788 5786 5785 5783 5781 5780 5780 5779 5779 5780 5781
5859 5858 5856 5854 5852 5850 5848 5847 5845 5843 5842 5841 5841 5841 5841 5840 5840 5839 5838 5837 5835 5834 5831 5829 5826 5823 5820 5816 5812 5809 5805 5801 5797 5794 5790 5787 5784 5781 5778 5776 5774 5772 5771 5770 5769 5768 5768 5769 5769
5858 5857 5856 5854 5852 5851 5849 5846 5846 5843 5842 5841 5841 5841 5840 5840 5839 5838 5837 5834 5832 5830 5827 5825 5821 5817 5814 5810 5805 5801 5797 5793 5789 5785 5782 5778 5775 5771 5768 5765 5763 5761 5760 5759 5758 5757 5757 5757 5758
5857 5856 5855 5853 5852 5851 5849 5847 5847 5844 5843 5842 5841 5841 5840 5839 5838 5836 5834 5831 5829 5826 5823 5820 5816 5812 5807 5803 5798 5794 5789 5785 5781 5776 5772 5769 5765 5761 5758 5755 5753 5751 5749 5747 5746 5746 5745 5746 5747
5855 5854 5853 5852 5851 5850 5849 5848 5846 5844 5843 5842 5841 5840 5839 5838 5836 5834 5831 5828 5825 5822 5818 5814 5810 5805 5801 5796 5791 5786 5781 5776 5771 5767 5762 5758 5755 5751 5748 5745 5742 5740 5737 5736 5735 5734 5734 5734 5735
5854 5853 5852 5851 5849 5849 5848 5846 5846 5844 5843 5841 5840 5839 5837 5835 5833 5830 5828 5825 5821 5817 5813 5808 5803 5798 5793 5788 5783 5777 5772 5767 5762 5757 5753 5748 5744 5740 5737 5734 5731 5728 5726 5724 5723 5722 5722 5722 5723
5853 5852 5850 5849 5849 5848 5847 5848 5845 5843 5841 5840 5838 5837 5835 5832 5829 5827 5823 5820 5816 5812 5807 5802 5797 5791 5786 5780 5775 5769 5764 5758 5753 5748 5743 5739 5734 5730 5726 5722 5719 5716 5714 5712 5710 5709 5708 5709 5710
5851 5850 5849 5849 5848 5846 5845 5848 5843 5841 5839 5838 5836 5833 5831 5828 5825 5822 5818 5815 5810 5806 5801 5795 5790 5784 5778 5773 5767 5761 5755 5750 5744 5739 5734 5729 5724 5719 5715 5711 5707 5704 5701 5698 5697 5695 5695 5695 5696